Regional Weather Roundup
Issued by NWS

Home | Current Version | Previous Version | Graphics & Text | Print | Product List | Glossary Off
Versions: 1 2 3 4 5 6 7 8 9 10 11 12 13 14 15 16 17 18 19 20 21 22 23 24 25 26 27 28 29 30 31 32 33 34 35 36 37 38 39 40 41 42 43 44 45 46 47 48

000
ASUS43 KDMX 231907
RWRIA

WEATHER ROUNDUP FOR IOWA
NATIONAL WEATHER SERVICE DES MOINES IA
200 PM CDT TUE SEP 23 2014

NOTE: "FAIR" INDICATES FEW OR NO CLOUDS BELOW 12,000 FEET WITH NO
SIGNIFICANT WEATHER AND/OR OBSTRUCTIONS TO VISIBILITY.

* - THESE STATIONS ARE NOT NWS STATIONS...THUS NOT UNDER NWS
QUALITY CONTROL.  THEY ALSO DO NOT REPORT WEATHER SUCH
AS PRECIPITATION OR FOG.

IAZ001>003-012>014-020>022-031>034-043>046-232000-
   NORTHWEST IOWA

CITY           SKY/WX    TMP DP  RH WIND       PRES   REMARKS
CARROLL *      SUNNY     63  55  77 S7        30.19F
CHEROKEE *     LGT RAIN  61  59  94 S12       30.17S
DENISON *      LGT RAIN  59  57  94 SE5       30.16F
LE MARS *      CLOUDY    61  57  88 SE9G17    30.12F
ORANGE CITY *  LGT RAIN  61  54  77 SE12G17   30.13F
SHELDON *      CLOUDY    59  57  94 S13G18    30.14S FOG
SIOUX CITY     CLOUDY    61  58  90 SE13      30.12F
SPENCER        LGT RAIN  65  54  67 S16G25    30.17S
STORM LAKE *   SUNNY     61  59  94 S12G21    30.18F
$$

IAZ055>058-069>071-079>083-090>094-232000-
   SOUTHWEST IOWA

CITY           SKY/WX    TMP DP  RH WIND       PRES   REMARKS
ATLANTIC *     MOSUNNY   68  54  60 S9G20     30.17F
AUDUBON *      LGT RAIN  63  54  72 SE3       30.19F
CLARINDA *     SUNNY     72  54  53 S15G25    30.19F
COUNCIL BLFS * MOSUNNY   70  57  64 S17G25    30.13F
CRESTON *      MOSUNNY   68  54  60 S13G22    30.20F
HARLAN  *      SUNNY     66  57  72 S7        30.20F
LAMONI         CLOUDY    70  53  54 S12G18    30.21F
RED OAK *      PTSUNNY   70  54  56 SE17G24   30.16F
SHENANDOAH *   SUNNY     72  54  53 S16       30.16F
$$

IAZ047>049-059>061-072>074-084-232000-
   CENTRAL IOWA

CITY           SKY/WX    TMP DP  RH WIND       PRES   REMARKS
AMES           CLOUDY    68  52  56 SE12      30.21F
ANKENY *       SUNNY     68  54  60 S8G14     30.22F
CHARITON *     SUNNY     70  52  52 SE13      30.23F
DES MOINES     CLOUDY    70  51  51 S13       30.22F
GRINNELL*      PTSUNNY   70  50  49 SE10      30.26F
KNOXVILLE *    SUNNY     68  52  56 SE10      30.22F
MARSHALLTOWN   PTSUNNY   71  51  49 S12       30.23F
PELLA *        CLOUDY    72  52  49 S9        30.25F
PERRY *        PTSUNNY   70  52  52 S13       30.20F
$$

IAZ004>006-015-016-023>025-035-036-232000-
   NORTH CENTRAL IOWA

CITY           SKY/WX    TMP DP  RH WIND       PRES   REMARKS
ALGONA *       PTSUNNY   72  50  46 S14G26    30.18F
CLARION *      SUNNY     72  50  46 S16G24    30.20F
ESTHERVILLE    CLOUDY    67  51  56 S20       30.17F
FORT DODGE *   CLOUDY    68  50  52 S9G16     30.20F
MASON CITY     MOSUNNY   72  51  47 S12G25    30.22F
FOREST CITY *  SUNNY     72  50  46 S15G23    30.20F
IOWA FALLS *     N/A     72  48  43 S15       30.23F
$$

IAZ007>011-017>019-026>030-037>042-050>054-066-232000-
   NORTHEAST IOWA

CITY           SKY/WX    TMP DP  RH WIND       PRES   REMARKS
CEDAR RAPIDS   MOSUNNY   71  50  47 S7        30.26F
CHARLES CITY * SUNNY     72  50  46 SE14      30.24F
CLINTON *      SUNNY     72  48  43 S10       30.32F
DECORAH *      SUNNY     70  50  49 VRB8G15   30.26F
DUBUQUE        SUNNY     70  47  43 S13       30.30F
MONTICELLO *   SUNNY     73  46  38 SE13      30.28F
OELWEIN *      SUNNY     73  48  40 S12G18    30.27F
WATERLOO       MOSUNNY   73  50  44 S13       30.23F
$$

IAZ064-065-067-068-078-232000-
   EAST CENTRAL IOWA

CITY           SKY/WX    TMP DP  RH WIND       PRES   REMARKS
DAVENPORT      SUNNY     73  45  36 SE9       30.29F
IOWA CITY      MOSUNNY   73  50  44 S12       30.28F
MT. PLEASANT * MOSUNNY   73  43  33 SE6       30.27F
MUSCATINE *    SUNNY     75  43  31 S10       30.28F
QUAD CITIES    SUNNY     73  46  38 SE5       30.28F
$$

IAZ062-063-075>077-085>089-095>099-232000-
   SOUTHEAST IOWA

CITY           SKY/WX    TMP DP  RH WIND       PRES   REMARKS
BURLINGTON     MOSUNNY   74  48  39 SE8       30.27F
FAIRFIELD *    SUNNY     72  50  46 SE10      30.26F
FORT MADISON * SUNNY     73  48  40 S3        30.28F
KEOKUK *       SUNNY     72  48  43 SE8       30.27F
OSKALOOSA *      N/A     70  50  49 S12       30.26F
CENTERVILLE *  SUNNY     70  54  56 SE7       30.26F
OTTUMWA        PTSUNNY   70  50  49 S8        30.24F
WASHINGTON *   SUNNY     73  46  38 S13       30.26F
$$

ABBREVIATIONS USED IN REMARKS
   TC - TEMPERATURES IN CELSIUS
  WCI - WIND CHILL INDEX
   HX - HEAT INDEX
  VSB - VISIBILITY
$$




USA.gov is the U.S. government's official web portal to all federal, state and local government web resources and services.